TimeEST,TemperatureF,Dew PointF,Humidity,Sea Level PressureIn,VisibilityMPH,Wind Direction,Wind SpeedMPH,Gust SpeedMPH,PrecipitationIn,Events,Conditions,WindDirDegrees,DateUTC
12:53 AM,30.9,21.9,69,30.42,10.0,East,3.5,-,N/A,,Clear,100,2013-11-20 05:53:00
1:53 AM,28.9,21.9,75,30.43,10.0,Calm,Calm,-,N/A,,Clear,0,2013-11-20 06:53:00
2:53 AM,28.0,21.9,78,30.43,10.0,ENE,4.6,-,N/A,,Clear,70,2013-11-20 07:53:00
3:53 AM,28.0,21.0,75,30.43,10.0,East,4.6,-,N/A,,Clear,80,2013-11-20 08:53:00
4:36 AM,30.2,23.0,75,30.41,10.0,NE,3.5,-,N/A,,Mostly Cloudy,50,2013-11-20 09:36:00
4:53 AM,28.0,21.9,78,30.43,10.0,NE,3.5,-,N/A,,Scattered Clouds,40,2013-11-20 09:53:00
5:53 AM,27.0,21.0,78,30.44,10.0,Calm,Calm,-,N/A,,Clear,0,2013-11-20 10:53:00
6:35 AM,26.6,21.2,80,30.42,10.0,Calm,Calm,-,N/A,,Mostly Cloudy,0,2013-11-20 11:35:00
6:53 AM,26.1,21.0,81,30.44,10.0,NNE,3.5,-,N/A,,Mostly Cloudy,30,2013-11-20 11:53:00
7:53 AM,30.0,24.1,79,30.44,10.0,NE,4.6,-,N/A,,Overcast,40,2013-11-20 12:53:00
8:51 AM,35.6,28.4,75,30.43,10.0,Calm,Calm,-,N/A,,Scattered Clouds,0,2013-11-20 13:51:00
8:53 AM,35.1,28.9,78,30.45,10.0,Calm,Calm,-,N/A,,Scattered Clouds,0,2013-11-20 13:53:00
9:00 AM,35.6,28.4,75,30.43,10.0,East,4.6,-,N/A,,Mostly Cloudy,90,2013-11-20 14:00:00
9:48 AM,39.2,32.0,75,30.42,10.0,ESE,9.2,-,N/A,,Scattered Clouds,120,2013-11-20 14:48:00
9:53 AM,39.9,30.9,70,30.44,10.0,ESE,10.4,-,N/A,,Partly Cloudy,120,2013-11-20 14:53:00
10:53 AM,44.1,30.0,58,30.42,10.0,ESE,13.8,-,N/A,,Clear,110,2013-11-20 15:53:00
11:53 AM,46.9,28.0,48,30.39,10.0,ESE,10.4,-,N/A,,Clear,110,2013-11-20 16:53:00
12:53 PM,48.0,24.1,39,30.35,10.0,ESE,13.8,20.7,N/A,,Clear,120,2013-11-20 17:53:00
1:53 PM,46.9,24.1,41,30.33,10.0,SE,15.0,-,N/A,,Clear,140,2013-11-20 18:53:00
2:53 PM,46.0,26.1,46,30.31,10.0,SE,16.1,24.2,N/A,,Clear,130,2013-11-20 19:53:00
3:53 PM,46.0,24.1,42,30.30,10.0,ESE,15.0,-,N/A,,Clear,120,2013-11-20 20:53:00
4:53 PM,44.1,24.1,45,30.28,10.0,SE,10.4,-,N/A,,Clear,130,2013-11-20 21:53:00
5:53 PM,39.9,26.1,58,30.29,10.0,SE,6.9,-,N/A,,Clear,130,2013-11-20 22:53:00
6:53 PM,39.0,28.0,65,30.29,10.0,SE,6.9,-,N/A,,Clear,130,2013-11-20 23:53:00
7:53 PM,37.9,28.0,68,30.28,10.0,SE,8.1,-,N/A,,Clear,130,2013-11-21 00:53:00
8:53 PM,39.9,27.0,60,30.27,10.0,SSE,9.2,-,N/A,,Clear,150,2013-11-21 01:53:00
9:53 PM,39.9,28.0,63,30.26,10.0,SE,8.1,-,N/A,,Clear,140,2013-11-21 02:53:00
10:53 PM,43.0,28.0,56,30.25,10.0,SE,8.1,-,N/A,,Clear,140,2013-11-21 03:53:00
11:53 PM,43.0,28.9,58,30.28,10.0,SSW,4.6,-,N/A,,Mostly Cloudy,200,2013-11-21 04:53:00